クレモラ彗星

68P/Klemola (2009)

English version
Home page
Total 6,336 html files since Dec. 4, 1995
Updated on July 20, 2008

---------------------------------------------------------------------

・ プロフィール

・ 写真集

・ 軌道要素

The following orbital elements are taken from MPC 56802:

Epoch 2009 Jan. 9.0 TT = JDT 2454840.5
T 2009 Jan. 20.9792 TT                                  MPC
q   1.759028             (2000.0)            P               Q
n   0.0910145      Peri.  153.9791      +0.8606056      +0.5090288
a   4.894731       Node   175.3299      -0.4944541      +0.8425657
e   0.640628       Incl.   11.1441      -0.1219556      +0.1759906
P  10.8
From 182 observations 1965-1998, mean residual 1".0.

・ 星図

・ 光度変化

        m1 = 7.7 + 5 logΔ + 20.5 log r(t + 60)

---------------------------------------------------------------------

軌道要素はMPCのEphemerides and Orbital Elementsに掲載されたものです。
星図はステラナビゲータ Ver.8 (アストロアーツ) で作成したものです。
光度グラフはComet for Windowsで作成したものです。

---------------------------------------------------------------------

Copyright(C) 1995-2008 Seiichi Yoshida (comet@aerith.net). All rights reserved.